Park Rapids, MN

12:11 AM CST on January 17, 2017 (GMT -0600)
Park Rapids Municipal

Weather History for KPKD - January, 2013

Change the Weather History Date:

Saturday, January 5, 2013

  Actual Average Record
Temperature  
Mean Temperature 12 °F -  
Max Temperature 26 °F 15 °F 51 °F (2012)
Min Temperature -2 °F -4 °F -33 °F (2014)
Degree Days  
Heating Degree Days 53    
Moisture  
Dew Point 6 °F    
Average Humidity 81    
Maximum Humidity 93    
Minimum Humidity 66    
Precipitation  
Precipitation 0.00 in - - ()
Sea Level Pressure  
Sea Level Pressure 29.98 in    
Wind  
Wind Speed 3 mph (NNW)    
Max Wind Speed 14 mph    
Max Gust Speed 20 mph    
Visibility 7 miles    
Events Fog    
Averages and records for this station are not official NWS values.
T = Trace of Precipitation, MM = Missing Value Source: NWS Daily Summary

Daily Weather History Graph

Daily Weather History Graph

Search for Another Location

Airport or City:

Trip Planner

Search our weather history database for the weather conditions in past years. The results will help you decide how hot, cold, wet, or windy it might be!

Date:

Astronomy

Jan. 05, 2013 Rise Set
Actual Time 8:05 AM CST 4:46 PM CST
Civil Twilight 7:30 AM CST 5:21 PM CST
Nautical Twilight 6:52 AM CST 5:59 PM CST
Astronomical Twilight 6:15 AM CST 6:36 PM CST
Moon 12:59 AM CST (1/5) 11:48 AM CST (1/5)
Length of Visible Light 9h 51m
Length of Day
8h 41m
Last Quarter, 44% of the Moon is Illuminated
Jan 5
Last Quarter
Jan 11
New
Jan 18
First Quarter
Jan 26
Full
Feb 3
Last Quarter

Hourly Weather History & Observations

Time (CST) Temp. Windchill Dew Point Humidity Pressure Visibility Wind Dir Wind Speed Gust Speed Precip Events Conditions
12:53 AM 12.9 °F 5.2 °F 9.0 °F 84% 30.06 in 6.0 mi ENE 4.6 mph - N/A   Clear
1:53 AM 3.9 °F - 1.0 °F 88% 30.07 in 4.0 mi Calm Calm - N/A   Clear
2:53 AM 3.0 °F - -0.0 °F 87% 30.06 in 3.0 mi Calm Calm - N/A   Clear
2:57 AM 1.4 °F - -2.2 °F 85% 29.96 in 1.2 mi Calm Calm - N/A   Clear
3:04 AM -0.4 °F - -2.2 °F 92% 29.96 in 0.5 mi Calm Calm - N/A Fog Light Freezing Fog
3:28 AM 3.2 °F - -0.4 °F 85% 29.96 in 2.0 mi Calm Calm - N/A   Clear
3:38 AM 3.2 °F - -0.4 °F 85% 29.95 in 6.0 mi Calm Calm - N/A   Clear
3:53 AM 6.1 °F - 1.9 °F 83% 30.04 in 4.0 mi Calm Calm - N/A   Clear
4:53 AM 3.9 °F - 1.9 °F 91% 30.02 in 8.0 mi Calm Calm - N/A   Clear
5:53 AM 1.0 °F - -4.0 °F 79% 29.99 in 6.0 mi Calm Calm - N/A   Haze
6:02 AM -0.4 °F - -5.8 °F 78% 29.89 in 1.8 mi Calm Calm - N/A   Haze
6:13 AM -0.4 °F - -4.0 °F 85% 29.89 in 1.0 mi Calm Calm - N/A   Mist
6:21 AM -0.4 °F -8.3 °F -5.8 °F 78% 29.89 in 2.5 mi NE 3.5 mph - N/A   Partly Cloudy
6:29 AM 5.0 °F - 1.4 °F 85% 29.89 in 7.0 mi Calm Calm - N/A   Partly Cloudy
6:53 AM -2.0 °F -10.1 °F -6.0 °F 83% 29.98 in 4.0 mi ESE 3.5 mph - N/A   Clear
7:53 AM -2.9 °F - -8.0 °F 79% 29.99 in 4.0 mi Calm Calm - N/A   Haze
8:53 AM -2.9 °F - -7.1 °F 82% 30.00 in 6.0 mi Calm Calm - N/A   Partly Cloudy
9:19 AM -0.4 °F - -4.0 °F 85% 29.88 in 5.0 mi Calm Calm - N/A   Mostly Cloudy
9:53 AM 5.0 °F -2.1 °F -0.0 °F 80% 30.00 in 4.0 mi NE 3.5 mph - N/A   Haze
10:02 AM 5.0 °F - 1.4 °F 85% 29.89 in 4.0 mi Calm Calm - N/A   Scattered Clouds
10:53 AM 8.1 °F -0.5 °F 5.0 °F 87% 29.99 in 4.0 mi NW 4.6 mph - N/A   Partly Cloudy
11:42 AM 14.0 °F - 12.2 °F 93% 29.87 in 5.0 mi Calm Calm - N/A   Mostly Cloudy
11:53 AM 18.0 °F 8.7 °F 12.9 °F 81% 29.96 in 8.0 mi North 6.9 mph - N/A   Mostly Cloudy
12:10 PM 19.4 °F 12.8 °F 14.0 °F 80% 29.86 in 10.0 mi North 4.6 mph - N/A   Scattered Clouds
12:53 PM 21.0 °F 16.2 °F 15.1 °F 78% 29.93 in 10.0 mi North 3.5 mph - N/A   Clear
1:53 PM 24.1 °F 13.7 °F 15.1 °F 69% 29.93 in 10.0 mi North 10.4 mph - N/A   Partly Cloudy
2:53 PM 26.1 °F 16.8 °F 16.0 °F 66% 29.94 in 10.0 mi North 9.2 mph - N/A   Partly Cloudy
3:53 PM 23.0 °F 11.1 °F 16.0 °F 74% 29.96 in 10.0 mi NNW 12.7 mph 19.6 mph N/A   Clear
4:53 PM 21.9 °F 12.5 °F 15.1 °F 75% 30.00 in 10.0 mi NNW 8.1 mph - N/A   Scattered Clouds
5:53 PM 23.0 °F 13.1 °F 17.1 °F 78% 30.02 in 10.0 mi NNW 9.2 mph - N/A   Overcast
6:33 PM 21.2 °F 12.6 °F 15.8 °F 80% 29.94 in 10.0 mi NNW 6.9 mph - N/A   Overcast
6:45 PM 21.2 °F 11.7 °F 15.8 °F 80% 29.95 in 10.0 mi NNW 8.1 mph - N/A   Overcast
6:53 PM 21.0 °F 10.6 °F 16.0 °F 81% 30.06 in 10.0 mi NNW 9.2 mph - N/A   Overcast
7:00 PM 21.2 °F 11.7 °F 15.8 °F 80% 29.95 in 10.0 mi NNW 8.1 mph - N/A   Overcast
7:08 PM 21.2 °F 11.7 °F 15.8 °F 80% 29.95 in 10.0 mi NNW 8.1 mph - N/A   Overcast
7:53 PM 21.0 °F 9.3 °F 16.0 °F 81% 30.08 in 10.0 mi NW 11.5 mph - N/A   Overcast
8:53 PM 19.9 °F 6.7 °F 15.1 °F 81% 30.09 in 10.0 mi NNW 13.8 mph - N/A   Overcast
9:14 PM 17.6 °F 5.0 °F 10.4 °F 73% 29.99 in 10.0 mi NNW 11.5 mph - N/A   Scattered Clouds
9:53 PM 12.0 °F 0.5 °F 5.0 °F 73% 30.10 in 10.0 mi NW 8.1 mph - N/A   Clear
10:53 PM 9.0 °F -5.1 °F 3.0 °F 77% 30.13 in 10.0 mi NW 10.4 mph - N/A   Clear
11:53 PM 8.1 °F -3.2 °F 1.9 °F 76% 30.12 in 10.0 mi WNW 6.9 mph - N/A   Overcast